カタログに戻る

COSMOS 839 DEB

運用中LEO
NORAD 18606·DEBRIS·🇷🇺 Russia

打ち上げ Jul 8, 1976 から Plesetsk Cosmodrome

Loading…

次のパス (今後24時間)

TLE

最新Source: Space-Track

元期: Sep 13, 2026, 03:09 UTC

1 18606U 76067BP  26256.13148897  .00000239  00000-0  96171-3 0  9990
2 18606  65.8306 303.9724 0631692 188.6718 203.4019 12.48692770822170

AllMySatでCOSMOS 839 DEBをリアルタイム追跡

Download on the App Store